Regional Weather Roundup
Issued by NWS

Home | Current Version | Previous Version | Graphics & Text | Print | Product List | Glossary On
Versions: 1 2 3 4 5 6 7 8 9 10 11 12 13 14 15 16 17 18 19 20 21 22 23 24 25 26 27 28 29 30 31 32 33 34 35 36 37 38 39 40 41 42 43 44 45 46 47 48 49 50
000
ASUS45 KTFX 242019
RWRMT
MONTANA HOURLY WEATHER ROUNDUP
NATIONAL WEATHER SERVICE GREAT FALLS MT
119 PM MST MON NOV 24 2014

NOTE: "FAIR" INDICATES FEW OR NO CLOUDS BELOW 12000 FEET WITH NO
SIGNIFICANT WEATHER AND/OR OBSTRUCTIONS TO VISIBILITY.

* THESE STATIONS ARE NOT UNDER NWS QUALITY CONTROL. THEY DO NOT
   REPORT WEATHER SUCH AS PRECIPITATION OR FOG.

MTZ001>007-043-242100-
WEST OF THE DIVIDE
CITY           SKY/WX    TMP DP  RH WIND       PRES   REMARKS
KALISPELL      CLOUDY    37  28  70 SW12      30.26S WCI  29
MISSOULA       CLOUDY    41  25  53 W17       30.32R
BUTTE          PTCLDY    34  12  40 NW12      30.21F WCI  25
MULLAN PASS    CLOUDY    25  21  85 SW5       30.22S WCI  19
* ESSEX        N/A       34  23  64 E1         N/A
* EUREKA APT   CLOUDY    39  25  57 SE5       30.24F WCI  35
* HAMILTON APT PTCLDY    41  19  41 NW6       30.31S
* LIBBY APT    CLOUDY    34  30  85 CALM      30.28F
* LINCOLN      N/A       32  23  69 SW5G12     N/A   WCI  27
* LOOKOUT PASS N/A       30  25  82 SE6        N/A   WCI  24
* POLSON       N/A       35  32  89 S1G7       N/A
* RONAN APT    CLOUDY    39  25  57 SW9        N/A   WCI  33
* SEELEY LAKE  N/A       37  26  64 E1         N/A
* THOMP F APT  CLOUDY    32  10  40 NW10G24    N/A   WCI  24
* YAAK HILL    N/A       32  30  92 NW1        N/A
$$

MTZ008-052>055-242100-
SOUTHWEST MONTANA
CITY           SKY/WX    TMP DP  RH WIND       PRES   REMARKS
BOZEMAN        PTCLDY    37  14  39 W15G25    30.21F WCI  28
DILLON         SUNNY     37  10  33 VRB3      30.23S
* W YELLOWSTON PTSUNNY   30  15  54 NW3G8      N/A
* ENNIS APT    PTCLDY    34  12  40 W13        N/A   WCI  25
* THREE FORKS  PTCLDY    43  16  34 W10G22     N/A
* BOULDER HILL N/A       31  10  41 N8         N/A   WCI  24
* MONIDA PASS  N/A       26  11  53 NW15G22    N/A   WCI  14
* RAYNOLDS PAS N/A       26 -21  11 N9         N/A   WCI  17
* WHITEHALL    N/A       42  14  32 W14G21     N/A
* WISE RIVER   N/A       32  13  45 W19G30     N/A   WCI  20
$$

MTZ009>010-012-014-046-048-049-054-242100-
EAST SLOPES AND CENTRAL MONTANA
CITY           SKY/WX    TMP DP  RH WIND       PRES   REMARKS
CUT BANK       PTSUNNY   39  18  43 W30G38    30.06F WCI  27
GREAT FALLS    SUNNY     43  16  34 W23G29    30.10S
HELENA         PTCLDY    39  16  39 W25G35    30.19F WCI  28
MALMSTROM AFB  PTSUNNY   41  16  36 W21G28    30.13S
* CONRAD       PTCLDY    43  18  37 W23G29     N/A
* DEARBORN     N/A       41  18  39 S17G25     N/A
* EAST GLACIER N/A       31  18  59 W22G35     N/A   WCI  18
* MONARCH      N/A       31  11  43 W19G26     N/A   WCI  19
* PENDROY      N/A       39  17  41 W22G32     N/A   WCI  29
* ROGERS PASS  N/A       28  19  69 SE16G30    N/A   WCI  16
* SAINT MARY   N/A       32  20  61 S10G25     N/A   WCI  24
* SWEET GRASS  N/A       40  13  33 NW16G21    N/A   WCI  32
* WHITE SULPH  N/A       36  16  44 W7G21      N/A   WCI  30
$$

MTZ011-013-016-021-035-040-045-047-050-051-242100-
NORTH CENTRAL MONTANA
CITY           SKY/WX    TMP DP  RH WIND       PRES   REMARKS
HAVRE          PTSUNNY   39  27  62 W12       30.08S WCI  32
LEWISTOWN      LGT SNOW  37  19  48 NW23G30   30.09S WCI  26
* CHINOOK      PTSUNNY   39  27  62 W10       30.07R WCI  32
* FORT BENTON  PTCLDY    46  16  30 W15G22    30.10F
* CHESTER      N/A       41  20  43 NW14G21    N/A
* DENTON       N/A       41  18  39 W22G27     N/A
* GEYSER       N/A       38  17  42 W24G29     N/A   WCI  27
* JUDITH GAP   N/A       40  19  43 NW24G33    N/A   WCI  30
* LOMA         N/A       42  23  47 S3         N/A
$$

MTZ017>020-022>027-061-062-242100-
NORTHEAST MONTANA
CITY           SKY/WX    TMP DP  RH WIND       PRES   REMARKS
GLASGOW        CLOUDY    34  23  64 W12       30.01S WCI  25
GLENDIVE       PTCLDY    32  25  75 W13       30.00S WCI  22
JORDAN         PTCLDY    39  25  57 NW23G31   30.03R WCI  28
SIDNEY         PTCLDY    27  18  69 W8        30.02R WCI  19
WOLF POINT     PTSUNNY   34  23  64 W13       30.00S WCI  25
* BEAVER HILL  N/A       24  19  81 W12        N/A   WCI  13
* CIRCLE       N/A       34  28  79 W11        N/A   WCI  26
* LINDSAY DVD  N/A       29  24  82 W16G23     N/A   WCI  17
* NAVAJO       N/A       30  21  69 W12        N/A   WCI  20
* PLENTYWOOD A PTSUNNY   25  18  75 W3        29.93F
* POPLAR APT   PTSUNNY   32  25  75 N/A       29.99F
* SACO         N/A       36  25  64 W15G20     N/A   WCI  27
* SCOBEY APT   PTCLDY    37  18  46 W11G16     N/A   WCI  29
$$

MTZ028>042-056>058-242100-
SOUTHCENTRAL AND SOUTHEAST MONTANA
CITY           SKY/WX    TMP DP  RH WIND       PRES   REMARKS
BAKER          CLOUDY    30  19  64 NW16G24   29.99R WCI  19
BILLINGS       PTSUNNY   45  18  34 NW24G31   30.10R
LIVINGSTON     PTSUNNY   39  14  36 W20G30    30.16S WCI  29
MILES CITY     CLOUDY    37  28  70 W16G22    30.02R WCI  28
* BIG TIMBER A PTCLDY    36  16  44 W26G36    30.14S WCI  24
* FORSYTH APT  PTCLDY    41  23  49 W13G18    30.05R
* LAUREL APT   PTCLDY    43  16  34 W18G29     N/A
* ALZADA       N/A       31  28  89 W16G22     N/A   WCI  20
* HYSHAM       N/A       40  14  35 W11G26     N/A   WCI  33
* LAME DEER    N/A       34  22  61 NW10G17    N/A   WCI  26
* REED POINT   N/A       41  20  43 W27G34     N/A
* ROSCOE HILL  N/A       34   7  32 W7G21      N/A   WCI  28
$$

REGIONAL REPORTS...DAKOTAS
CITY           SKY/WX    TMP DP  RH WIND       PRES   REMARKS
WILLISTON      PTCLDY    25  18  75 W10       29.99R WCI  15
DICKINSON      PTCLDY    23  16  74 W17       29.93R WCI   9
BEACH          PTSUNNY   25  23  92 NW17      29.99R WCI  12
CROSBY         CLOUDY    23  18  81 W10       29.95F WCI  13
TIOGA          PTSUNNY   18  16  92 W16G21    29.98R WCI   3
BISMARCK       SUNNY     27   0  31 N10G22    29.95R WCI  18
GRAND FORKS    PTCLDY    18  10  71 N21G29    29.83R WCI   1
FARGO          CLOUDY    18  10  71 N25G31    29.80R
BUFFALO SD     PTCLDY    34  21  59 NW23G28   29.88R WCI  22
RAPID CITY     HVY SNOW  28  27  96 N8        29.95R VSB M1/4 WCI  20
$$

REGIONAL REPORTS...WYOMING/IDAHO/WASHINGTON
CITY           SKY/WX    TMP DP  RH WIND       PRES   REMARKS
SHERIDAN       LGT SNOW  36  23  59 NW22G36   30.07R WCI  25
CODY           PTSUNNY   36   7  30 W15       30.11R WCI  27
YELLOWSTONE LA PTSUNNY   23   9  55 W13G24    30.17R WCI  11
SALMON         SUNNY     37  25  62 NW6       30.32F WCI  32
MULLAN PASS    CLOUDY    25  21  85 SW5       30.22S WCI  19
SAND POINT     CLOUDY    36  32  85 SW5       30.33F WCI  32
SPOKANE        CLOUDY    36  32  85 SE6       30.32F WCI  31
$$

REGIONAL REPORTS...ALBERTA
CITY           SKY/WX    TMP DP  RH WIND       PRES   REMARKS
CALGARY        CLOUDY    36  23  59 S10       29.96F WCI  29
LETHBRIDGE     PTSUNNY   41  18  39 W20G29    30.03F
MEDICINE HAT   PTCLDY    41  28  60 SW10      30.03F
EDMONTON       PTSUNNY   32  23  69 SW3       29.92F
WATERTON GATE  N/A       34  19  54 SW24G39    N/A   WCI  22
CARDSTON       N/A       39  18  43 W16G25     N/A   WCI  30
MILK RIVER     N/A       41  18  39 NW16G23    N/A
$$

REGIONAL REPORTS...SASKATCHEWAN
CITY           SKY/WX    TMP DP  RH WIND       PRES   REMARKS
SWIFT CURRENT  CLOUDY    30  27  89 NW20G25   29.94R WCI  17
MOOSE JAW      LGT SNOW  30  27  89 W21       29.91F VSB 2 1/2 WCI  17
REGINA         LGT SNOW  23  19  85 SW7       29.89F VSB 1 1/2 WCI  15
VAL MARIE      N/A       37  27  67 NW20G28    N/A   WCI  27
ASSINIBOIA     N/A       28  27  96 W21G28     N/A   WCI  14
CORONACH       N/A       36  21  54 W14        N/A   WCI  27

$$




USA.gov is the U.S. government's official web portal to all federal, state and local government web resources and services.